Regional Weather Roundup
Issued by NWS Upton, NY

Current Version | Previous Version | Text Only | Print | Product List | Glossary On
Versions: 1 2 3 4 5 6 7 8 9 10 11 12 13 14 15 16 17 18 19 20 21 22 23 24 25 26 27 28 29 30 31 32 33 34 35 36 37 38 39 40 41 42 43 44 45 46 47 48 49 50
000 ASUS41 KOKX 281505 RWROKX REGIONAL WEATHER ROUNDUP NATIONAL WEATHER SERVICE NEW YORK NY 1000 AM EST SAT FEB 28 2015 NOTE: "FAIR" INDICATES FEW OR NO CLOUDS BELOW 12,000 FEET WITH NO SIGNIFICANT WEATHER AND/OR OBSTRUCTIONS TO VISIBILITY. NYZ071-072-176-178-NJZ106-104-281600- NEW YORK CITY METRO AREA CITY SKY/WX TMP DP RH WIND PRES REMARKS CENTRAL PARK SUNNY 18 -2 41 CALM 30.83S LAGUARDIA APRT MOSUNNY 19 0 43 NE5 30.82S WCI 12 KENNEDY INTL MOSUNNY 22 -1 36 N6 30.83S WCI 14 NEWARK/LIBERTY MOSUNNY 20 0 41 N6 30.83S WCI 12 BRNX BOT. GARD N/A N/A N/A N/A SE2 30.81F TETERBORO SUNNY 19 -3 38 VRB3 30.82S $$ NYZ177-179-078>081-281600- LONG ISLAND NEW YORK CITY SKY/WX TMP DP RH WIND PRES REMARKS FARMINGDALE SUNNY 20 3 48 N7 30.81S WCI 11 ISLIP MOSUNNY 19 5 54 N10 30.78S WCI 7 SHIRLEY SUNNY 20 5 52 NW14 30.80S WCI 7 WESTHAMPTON SUNNY 19 5 54 NW14 30.79S WCI 6 MONTAUK POINT N/A 21 5 50 NW8 30.78S WCI 11 $$ NYZ052-065-067-281600- HUDSON VALLEY CITY SKY/WX TMP DP RH WIND PRES REMARKS WHITE PLAINS SUNNY 16 -1 47 N6 30.77R WCI 7 NEWBURGH SUNNY 12 0 57 CALM 30.79S MONTGOMERY SUNNY 13 -3 49 CALM 30.79S POUGHKEEPSIE SUNNY 16 1 51 NE3 30.81F ALBANY SUNNY 15 1 53 W6 30.81R WCI 6 $$ NJZ001-105-106-008-010-013-015-019>022-104-281600- NEW JERSEY CITY SKY/WX TMP DP RH WIND PRES REMARKS NEWARK/LIBERTY MOSUNNY 20 0 41 N6 30.83S WCI 12 TETERBORO SUNNY 19 -3 38 VRB3 30.82S CALDWELL SUNNY 16 -3 43 CALM 30.82S MORRISTOWN SUNNY 18 0 45 NE3 30.82F SOMERVILLE SUNNY 19 -2 39 CALM 30.81S SUSSEX SUNNY 15 0 51 CALM 30.77S ANDOVER N/A 16 -1 47 VRB6 30.78S WCI 7 TRENTON SUNNY 18 -2 41 N9 30.82S WCI 7 MILLVILLE MOSUNNY 22 0 38 N8 30.83S WCI 12 ATLANTIC CITY MOSUNNY 22 -1 36 N10 30.82F WCI 11 WRIGHTSTOWN SUNNY 18 -2 41 N7 30.81S WCI 9 TOMS RIVER SUNNY 19 3 49 NW10 30.83S WCI 8 BELMAR SUNNY 18 -2 41 W7 30.81S WCI 8 $$ PAZ047>061-062-071-281600- EASTERN PENNSYLVANIA CITY SKY/WX TMP DP RH WIND PRES REMARKS PHILADELPHIA PTSUNNY 20 -3 36 N6 30.86S WCI 12 ALLENTOWN SUNNY 16 -4 41 N6 30.81S WCI 7 SCRANTON SUNNY 13 -4 46 CALM 30.77S $$ CTZ002-004>006-009-010-012-RIZ004-006-007-MAZ004-011-015-281600- SOUTHERN NEW ENGLAND IN CT CITY SKY/WX TMP DP RH WIND PRES REMARKS BRADLEY INTL MOSUNNY 17 0 47 CALM 30.77F HARTFORD SUNNY 17 0 47 N7 30.80S WCI 8 DANBURY SUNNY 17 0 47 NW7 30.78S WCI 8 WTRBRY/OXFORD SUNNY 10 -6 48 N12G17 30.74S WCI -4 BRIDGEPORT SUNNY 20 3 48 N8 30.80F WCI 10 MERIDEN SUNNY 18 1 47 NW7 30.79F WCI 9 NEW HAVEN SUNNY 19 2 47 NW10 30.79S WCI 7 CHESTER FAIR 18 1 49 N9 30.75S WCI 6 GROTON SUNNY 19 2 47 N7 30.77S WCI 10 WILLIMANTIC SUNNY 19 0 43 N5 30.76F WCI 12 IN RI CITY SKY/WX TMP DP RH WIND PRES REMARKS PROVIDENCE MOSUNNY 20 -2 38 N6 30.76S WCI 12 BLOCK ISLAND SUNNY 19 3 49 NE6 30.74S WCI 11 WESTERLY SUNNY 20 1 43 VRB5 30.76F WCI 13 IN MA CITY SKY/WX TMP DP RH WIND PRES REMARKS BOSTON SUNNY 19 0 43 W9 30.75S WCI 8 WORCESTER SUNNY 17 -1 45 W7 30.66S WCI 8 WESTFIELD SUNNY 16 -1 47 CALM 30.76S PROVINCETOWN SUNNY 21 9 58 NW7 30.74S WCI 13 NANTUCKET SUNNY 23 14 68 N12 30.73S WCI 12 $$ ANZ330-335-338-340-345-350-353-355-281600- COASTAL MARINE OBSERVATIONS STATION/POSITION TIME SKY/WX TEMP WIND PRES VSBY WAVE AIR SEA DIR/SP/G HT/PER (UTC) (F) (DEG/KT/KT) (MB) (MI) (FT/S) NY HARB ENTRANCE 1500 19 38 360/ 8/ 12 1043.5 3/10 4S FIRE IS NOT AVBL 20S FIRE ISLAND 1400 36 1043.4 4/10 23SW MTP 1500 N/A 3/10 HUDSON CANYON NOT AVBL EXECUTION ROCKS NOT AVBL WESTERN LI SOUND NOT AVBL CENTRAL LI SOUND NOT AVBL EASTERN LI SOUND NOT AVBL ROBBINS REEF 1500 16 320/ 3/ 5 1042.8 $$ >>>>>>>>>>>>>>>>>>>>>>>>>>>> KEY <<<<<<<<<<<<<<<<<<<<<<<<<<< > < > SKY/WX - SKY CONDITION/PRESENT WEATHER < > TMP - TEMPERATURE IN FAHRENHEIT < > DP - DEWPOINT IN FAHRENHEIT < > RH - RELATIVE HUMIDITY IN PERCENT < > WIND - DIRECTION AND SPEED IN MPH < > PRES - MEAN SEA LEVEL PRESSURE IN INCHES OF HG < > WCI - WIND CHILL INDEX < > VSB - VISIBILITY IN MILES < > HX - HEAT INDEX < > TC - TEMPERATURE IN CELSIUS < > VRB - VARIABLE WIND DIRECTION < > < >>>>>>>>>>>>>>>>>>>>>>>>>>>> KEY <<<<<<<<<<<<<<<<<<<<<<<<<<<

USA.gov is the U.S. government's official web portal to all federal, state and local government web resources and services.